OBJECT M

基本信息
目录编号:
46838
目录名称:
OBJECT M
国际标识:
2020-079M
轨道中心:
EARTH
物体状态:
已陨落(2023-12-05)
发射日期:
2020-11-06 UTC
国别:
中国 (CN)
轨道信息
数据来源: 国际轨道数据
星历时间: 2023-12-03T00:19:42+0800
半长轴: 6531.007km
偏心率: 0.000988
轨道倾角: 97.097°
近地点辐角: 272.195°
升交点赤经: 53.593°
平近点角: 87.822°
近地点: 146.419km
远地点: 159.325km
周期: 87.545分钟
每日圈数: 16.44874
详细信息
发射场:
TSC
轨道高度:
LEO
数据来源:
AOE Integration Group
参考系:
TEME
时间系统:
UTC
历元类型:
SGP4
2D轨道图
3D轨道图
轨道高度分析图
轨道倾角分析图
轨道综合分析图
查看轨道综合分析图